Location: Newark
(47.5989°N, 4.6950°E)
Time: 05:51:24
(UTC+00:00)

ISS - Pass Details

Date: 27 November 2019
Orbit: 411 x 421 km, 51.6° (Epoch: 08 December)

Event Time Altitude Azimuth Distance (km) Brightness Sun altitude
Rises 18:11:35 0° 265° (W) 2,356 1.6 -22.5°
Reaches altitude 10° 18:13:43 10° 271° (W) 1,496 0.1 -22.9°
Enters shadow 18:16:12 39° 305° (NW) 649 -2.5 -23.3°
